Morgantown, WV

11:44 PM EST on February 12, 2016 (GMT -0500)
Morgantown Municipal-Hart

Weather History for KMGW - December, 2003

Change the Weather History Date:

Wednesday, December 3, 2003

  Actual Average Record
Temperature  
Mean Temperature 26 °F 38 °F  
Max Temperature 32 °F 46 °F 76 °F (1982)
Min Temperature 19 °F 31 °F 0 °F (1976)
Degree Days  
Heating Degree Days 40 27  
Month to date heating degree days 79  
Since 1 July heating degree days 1127  
Cooling Degree Days 0 0  
Month to date cooling degree days 0  
Year to date cooling degree days 814  
Moisture  
Dew Point 17 °F    
Average Humidity 70    
Maximum Humidity 92    
Minimum Humidity 51    
Precipitation  
Precipitation 0.00 in 0.10 in 1.05 in (1978)
Month to date precipitation 0.31  
Year to date precipitation 39.23  
Sea Level Pressure  
Sea Level Pressure 30.54 in    
Wind  
Wind Speed 2 mph (NE)    
Max Wind Speed 8 mph    
Max Gust Speed -    
Visibility 10 miles    
Events      
T = Trace of Precipitation, MM = Missing Value Source: NWS Daily Summary

Daily Weather History Graph

Daily Weather History Graph

Search for Another Location

Airport or City:

Trip Planner

Search our weather history database for the weather conditions in past years. The results will help you decide how hot, cold, wet, or windy it might be!

Date:

Astronomy

Dec. 03, 2003 Rise Set
Actual Time 7:22 AM EST 4:55 PM EST
Civil Twilight 6:53 AM EST 5:25 PM EST
Nautical Twilight 6:19 AM EST 5:59 PM EST
Astronomical Twilight 5:47 AM EST 6:31 PM EST
Moon 2:24 PM EST (12/3) 2:19 AM EST (12/3)
Length of Visible Light 10h 32m
Length of Day
9h 32m
Waxing Gibbous, 78% of the Moon is Illuminated
Dec 3
Waxing Gibbous
Dec 8
Full
Dec 16
Last Quarter
Dec 23
New
Dec 30
First Quarter

Hourly Weather History & Observations

Time (EST) Temp. Windchill Dew Point Humidity Pressure Visibility Wind Dir Wind Speed Gust Speed Precip Events Conditions
12:53 AM 23.0 °F - 17.1 °F 78% 30.51 in 10.0 mi Calm Calm - N/A   Clear
1:53 AM 21.9 °F 17.2 °F 17.1 °F 82% 30.51 in 10.0 mi SSW 3.5 mph - N/A   Unknown
2:53 AM 21.0 °F - 18.0 °F 88% 30.55 in 10.0 mi Calm Calm - N/A   Unknown
3:53 AM 19.9 °F - 18.0 °F 92% 30.56 in 10.0 mi Calm Calm - N/A   Clear
4:53 AM 21.0 °F - 17.1 °F 85% 30.56 in 10.0 mi Calm Calm - N/A   Unknown
5:53 AM 21.0 °F - 18.0 °F 88% 30.57 in 10.0 mi Calm Calm - N/A   Partly Cloudy
6:53 AM 19.9 °F - 18.0 °F 92% 30.59 in 10.0 mi Calm Calm - N/A   Clear
7:53 AM 19.9 °F - 18.0 °F 92% 30.61 in 10.0 mi Calm Calm - N/A   Clear
8:53 AM 21.9 °F - 19.0 °F 89% 30.63 in 10.0 mi Calm Calm - N/A   Clear
9:53 AM 26.1 °F - 19.9 °F 78% 30.61 in 10.0 mi Calm Calm - N/A   Clear
10:53 AM 30.0 °F 26.5 °F 18.0 °F 61% 30.60 in 10.0 mi North 3.5 mph - N/A   Clear
11:53 AM 30.9 °F 25.2 °F 16.0 °F 54% 30.59 in 10.0 mi North 5.8 mph - N/A   Clear
12:53 PM 32.0 °F 28.7 °F 17.1 °F 54% 30.57 in 10.0 mi Variable 3.5 mph - N/A   Clear
1:53 PM 32.0 °F 27.5 °F 16.0 °F 52% 30.55 in 10.0 mi NE 4.6 mph - N/A   Clear
2:53 PM 32.0 °F 25.6 °F 17.1 °F 54% 30.53 in 10.0 mi NNE 6.9 mph - N/A   Overcast
3:53 PM 30.9 °F 23.5 °F 17.1 °F 57% 30.52 in 10.0 mi NNE 8.1 mph - N/A   Overcast
4:53 PM 30.0 °F 23.2 °F 17.1 °F 59% 30.51 in 10.0 mi NNE 6.9 mph - N/A   Overcast
5:53 PM 28.9 °F 21.1 °F 18.0 °F 64% 30.52 in 10.0 mi NNE 8.1 mph - N/A   Clear
6:53 PM 28.0 °F 22.8 °F 18.0 °F 66% 30.50 in 10.0 mi North 4.6 mph - N/A   Clear
7:53 PM 28.0 °F - 18.0 °F 66% 30.49 in 10.0 mi Calm Calm - N/A   Clear
8:53 PM 28.0 °F 22.8 °F 16.0 °F 61% 30.47 in 10.0 mi ENE 4.6 mph - N/A   Clear
9:53 PM 30.0 °F 24.1 °F 14.0 °F 51% 30.46 in 10.0 mi ENE 5.8 mph - N/A   Partly Cloudy
10:53 PM 28.9 °F 23.9 °F 14.0 °F 54% 30.45 in 10.0 mi East 4.6 mph - N/A   Partly Cloudy
11:53 PM 28.9 °F - 14.0 °F 54% 30.46 in 10.0 mi Calm Calm - N/A   Mostly Cloudy